Temperature
26 25 25 25 31 30 28 28 28 28 27 26 25 26 26 25 25 23 20 19 19 18 18 18 18 18 18 18 18 18 18 18 18 18 18 18 18 18 18 18 18 18 18 18 18 18 18 18 18
25 25 26 30 31 29 27 28 28 27 26 25 25 25 25 23 22 20 19 19 19 19 18 17 18 18 18 18 18 18 18 18 18 18 18 18 18 18 18 18 18 18 18 18 18 18 18 18 18
25 26 29 32 30 29 28 28 27 27 26 26 25 25 24 23 21 20 19 18 19 18 18 18 18 18 18 18 18 18 18 18 18 18 18 18 18 18 18 18 18 18 18 18 18 18 18 18 18
26 28 31 31 29 29 29 28 28 27 26 26 26 25 23 21 21 20 19 19 19 18 18 17 18 18 18 18 18 18 18 18 18 18 18 18 18 18 18 18 18 18 18 18 18 18 18 18 17
27 32 32 30 29 29 29 28 28 28 27 26 26 25 22 20 20 19 19 19 19 19 18 17 18 18 18 18 18 18 18 18 18 18 18 18 18 18 18 18 18 18 18 18 18 18 18 18 17
31 33 32 30 29 29 29 28 28 28 26 26 26 25 22 20 20 19 19 19 19 19 18 17 18 18 18 18 18 18 18 18 18 18 18 18 18 18 18 18 17 18 18 17 17 17 17 17 17
33 33 31 31 29 29 29 28 28 28 27 26 26 25 22 20 20 19 19 19 19 19 18 18 17 18 18 18 18 18 18 18 18 18 18 18 18 18 18 18 17 18 17 17 17 17 17 17 17
32 34 32 31 30 30 29 28 28 28 26 25 25 26 23 20 19 19 19 19 19 19 19 18 18 17 17 17 18 18 18 18 18 18 18 18 18 18 18 17 18 18 17 17 17 17 17 17 17
31 33 32 32 31 30 29 29 27 27 26 25 25 25 23 20 20 19 19 19 19 18 18 19 18 18 17 17 17 17 18 18 18 17 18 17 17 17 17 17 18 17 17 17 17 17 17 17 17
33 33 32 32 32 31 29 29 28 28 27 26 24 23 21 20 20 20 20 20 19 18 18 18 18 18 18 18 17 17 17 17 17 17 17 17 17 17 17 17 17 17 17 17 17 17 17 17 17
33 33 32 32 31 31 30 29 29 29 29 27 25 23 21 21 20 21 21 20 19 19 18 18 18 18 18 18 18 17 17 17 17 17 17 17 17 17 17 17 17 17 17 17 17 17 17 17 17
33 32 32 31 31 31 30 30 29 29 28 27 25 23 22 22 21 21 21 20 19 19 18 18 18 18 18 18 18 18 18 18 17 17 17 17 17 17 17 17 17 17 17 17 17 17 17 17 17
33 32 31 31 30 30 30 30 29 28 27 26 24 23 22 22 22 21 20 20 19 19 18 18 18 18 18 18 18 18 18 18 18 17 17 17 17 17 17 17 17 17 17 17 17 17 17 17 17
32 32 31 31 31 30 30 30 29 28 26 25 24 23 23 23 22 21 20 20 19 19 19 18 18 18 18 18 18 18 18 18 17 17 17 17 17 17 17 17 17 17 17 17 17 17 17 17 17
32 32 32 32 31 31 31 30 30 28 26 25 25 24 23 23 22 21 20 20 19 19 19 19 19 18 18 18 18 18 18 17 17 17 17 17 17 17 17 17 17 17 17 17 17 17 17 17 17
33 33 32 32 32 31 31 31 30 27 27 26 25 24 23 22 22 21 21 20 20 19 19 19 19 19 19 18 18 18 18 17 17 17 17 17 17 17 17 17 17 17 17 17 17 17 17 17 17
33 33 33 32 32 32 32 31 30 28 28 27 26 25 24 23 22 21 21 20 20 20 19 19 19 19 19 18 18 18 17 17 17 17 17 17 17 17 17 17 17 17 17 17 17 17 17 17 17
32 33 32 32 32 32 32 31 30 28 28 28 27 26 24 24 23 22 21 21 20 20 19 19 19 19 19 18 18 18 18 17 17 17 17 17 17 17 17 17 17 17 17 17 17 17 17 17 17
33 33 32 32 32 32 32 31 31 29 29 28 27 26 25 24 23 22 21 21 20 20 20 19 19 19 19 18 18 18 18 17 17 17 17 17 17 17 17 17 17 17 17 17 17 17 17 17 17
32 32 32 32 31 31 32 32 31 30 29 28 28 27 25 24 23 22 21 21 20 20 20 20 19 19 19 19 18 18 18 17 17 17 17 17 17 17 17 17 17 17 17 17 17 17 17 17 17
32 32 32 32 31 32 32 31 31 30 29 28 27 27 26 25 24 22 22 21 21 20 20 20 20 19 19 19 18 18 18 18 17 17 17 17 17 17 17 17 17 17 17 17 17 17 17 17 17
32 32 32 32 32 32 32 32 31 31 30 29 28 27 27 25 24 23 22 21 21 21 20 20 20 19 19 19 18 18 18 18 18 17 17 17 17 17 17 17 17 17 17 17 17 17 17 17 17
32 32 32 32 32 32 32 32 32 31 30 30 29 27 27 26 25 23 22 21 21 21 20 20 20 20 19 19 18 18 18 18 17 17 17 17 17 17 17 17 17 17 17 17 17 17 17 17 17
31 31 31 32 32 31 31 31 31 32 31 31 30 27 26 26 24 23 22 21 21 21 20 20 20 20 19 19 18 18 18 18 18 18 17 17 17 17 17 17 17 17 17 17 17 17 17 17 17
31 31 31 31 31 31 31 31 31 32 31 31 30 28 27 25 24 23 22 22 21 21 20 20 20 20 19 19 19 18 18 18 18 17 17 17 17 17 17 17 17 17 17 17 17 17 17 17 17
31 32 31 30 30 31 30 31 32 31 30 29 29 28 27 26 25 23 22 22 21 21 21 20 20 20 19 19 19 19 18 18 17 17 17 17 17 17 17 17 17 17 16 16 17 17 17 17 17
31 32 33 32 31 31 31 31 32 31 30 30 29 28 27 26 25 24 23 22 22 21 21 21 20 20 20 19 19 19 18 18 18 17 17 17 17 17 17 17 17 17 17 17 17 17 17 17 17
32 32 32 31 30 30 30 31 32 31 31 30 30 29 27 26 25 24 23 22 22 21 21 21 20 20 20 19 19 18 18 18 18 17 17 17 17 17 17 16 16 16 16 16 16 16 16 16 16
30 31 31 31 31 30 30 31 32 32 31 30 30 28 27 26 25 24 23 22 22 21 21 21 20 20 20 19 19 19 18 18 18 17 17 17 17 17 17 17 16 16 16 16 16 16 16 16 16
32 32 31 30 29 30 31 31 32 31 31 30 29 28 26 25 25 24 23 22 22 21 21 21 20 20 20 19 19 19 18 18 18 17 17 17 17 17 16 16 16 16 16 16 16 16 15 15 15
Wind_Speed
10 9 6 4 4 11 15 12 10 9 8 9 9 8 10 10 8 10 9 10 10 10 12 12 10 10 11 11 12 12 12 12 12 12 12 12 12 13 13 13 13 13 13 14 14 14 14 14 14
8 6 5 0 9 13 14 11 12 11 10 9 9 10 12 11 10 11 10 10 10 10 11 11 11 10 10 11 11 11 11 11 11 12 12 12 12 12 12 12 13 13 13 14 14 14 14 14 14
7 6 2 7 13 14 14 11 11 10 8 6 7 9 8 9 9 8 11 12 10 10 11 12 10 10 10 10 11 11 11 11 11 11 11 11 12 12 12 12 12 13 13 13 13 13 13 13 13
5 3 3 11 17 14 13 11 9 10 9 8 9 10 9 8 6 10 13 11 11 10 10 13 9 10 10 10 10 10 11 11 11 11 11 11 12 12 12 12 12 13 13 13 13 12 12 12 12
4 1 10 14 15 13 11 9 6 8 7 8 9 13 10 9 11 14 13 11 10 10 10 13 10 9 10 9 10 10 11 11 11 11 11 12 12 12 12 12 12 12 12 12 11 11 11 12 12
1 3 10 13 14 10 9 7 7 11 11 10 12 13 9 8 11 12 11 10 10 10 10 13 10 9 9 9 9 9 10 10 10 11 11 11 12 12 12 12 11 11 11 11 11 11 10 11 11
3 8 12 13 12 10 8 6 7 9 10 9 8 11 9 10 11 11 10 9 8 9 9 9 11 11 9 9 9 9 9 9 10 10 11 11 11 11 11 11 11 11 10 10 10 9 9 10 10
2 6 12 11 11 11 8 7 8 9 9 8 5 7 10 13 12 11 10 9 8 7 7 8 8 8 9 10 9 8 8 9 9 9 9 10 11 11 10 11 10 10 9 9 9 9 9 10 10
1 6 11 11 10 10 9 9 8 7 9 7 6 9 14 16 14 12 10 9 7 6 5 5 7 7 6 8 9 9 9 7 7 9 7 5 7 9 9 11 9 9 8 9 9 8 9 9 10
2 9 11 8 8 10 9 8 8 8 9 9 11 13 16 15 13 12 10 9 9 7 6 5 4 6 5 5 6 5 6 6 4 5 5 5 5 5 8 10 8 8 8 8 8 7 7 6 8
6 9 8 7 7 9 9 9 7 7 8 9 13 16 16 15 12 10 9 8 8 7 6 6 5 4 4 3 3 3 3 4 4 4 4 4 4 5 5 6 8 7 7 6 7 6 4 3 4
6 8 6 7 7 7 8 8 7 6 8 10 13 16 16 14 12 10 9 8 7 6 6 5 5 4 3 2 3 3 3 3 3 4 2 4 3 2 3 2 4 4 4 3 3 3 3 3 3
6 6 7 7 7 7 7 7 7 7 9 12 15 15 14 12 10 9 7 7 7 7 6 5 5 5 4 2 2 2 1 1 2 2 2 1 2 2 3 2 1 2 3 4 3 2 2 2 2
5 6 7 7 8 7 7 7 6 8 11 14 14 14 12 11 10 9 8 8 7 7 7 6 6 5 5 4 2 1 2 1 1 2 2 1 1 1 2 3 2 1 2 1 1 2 3 2 1
5 7 8 6 6 6 6 7 6 9 12 13 13 12 11 10 9 9 8 8 8 7 7 6 6 6 5 4 4 3 2 2 1 1 2 2 1 1 2 1 2 2 2 2 2 2 2 3 3
6 6 6 6 5 5 7 5 8 11 12 12 12 12 11 10 9 8 8 7 7 7 7 7 6 6 6 4 4 3 2 2 2 2 2 2 2 2 3 2 2 2 3 3 2 3 3 2 3
6 5 4 6 5 5 6 3 9 11 12 12 12 12 11 10 9 8 8 8 7 7 7 7 6 6 6 5 4 4 3 3 3 3 2 2 3 3 4 3 2 3 3 3 3 2 3 3 3
5 4 4 4 5 6 6 3 8 10 10 11 11 11 11 10 10 9 8 8 8 7 7 7 7 6 6 5 5 4 4 4 4 4 3 3 3 4 4 4 3 4 3 3 3 3 3 4 4
2 3 3 3 3 6 6 5 6 9 10 10 10 10 10 10 9 8 8 8 8 8 8 8 7 7 6 5 5 4 4 4 4 4 4 4 5 4 4 4 3 4 4 4 5 4 5 4 3
5 5 4 4 3 4 4 4 5 8 10 10 10 10 10 9 9 9 8 8 8 8 8 8 8 7 7 5 4 3 3 3 3 3 3 5 5 5 4 4 4 4 4 5 5 5 4 4 4
6 5 3 3 4 4 4 6 6 7 9 9 9 9 9 10 10 10 9 9 8 8 8 7 7 6 6 5 4 3 3 3 3 3 3 4 4 4 4 4 5 4 5 5 5 5 6 5 4
7 2 3 4 5 2 4 2 5 6 9 10 10 10 10 10 10 10 10 9 8 8 7 7 7 6 6 6 5 4 4 3 3 2 2 2 3 4 5 5 5 5 5 5 6 5 5 5 5
3 3 4 4 5 4 3 5 3 6 6 8 9 9 9 10 10 10 10 9 8 8 7 7 6 6 5 5 4 4 4 3 2 2 2 3 3 3 4 5 5 5 5 5 5 4 5 5 5
7 6 4 6 7 6 2 5 1 2 3 4 7 9 10 10 10 10 9 9 8 8 7 7 7 6 5 5 4 4 3 3 2 2 2 2 2 2 3 4 4 4 4 5 5 5 5 5 5
10 9 7 7 7 4 2 5 0 2 1 2 5 8 10 11 11 11 11 10 9 9 8 7 7 6 5 5 4 4 3 3 3 3 2 2 2 2 2 3 3 3 3 4 4 4 4 5 5
13 13 9 6 5 4 5 4 1 3 1 3 5 8 10 11 11 11 11 10 10 9 9 8 7 6 5 4 4 3 3 2 2 2 2 1 1 2 2 2 2 3 3 3 3 4 4 4 4
12 12 8 7 6 6 4 3 3 3 4 6 7 9 10 11 11 11 11 10 10 9 9 8 7 6 5 5 4 3 2 1 1 1 1 1 1 1 1 1 1 2 2 2 2 2 3 3 4
7 9 7 9 7 7 6 6 4 5 5 7 8 9 10 10 11 11 10 10 10 9 9 8 7 6 6 5 4 3 3 2 1 1 0 1 1 1 1 1 1 1 1 1 2 2 2 2 2
9 10 8 8 8 8 6 3 2 3 4 6 8 9 10 10 10 10 10 10 10 9 9 8 8 7 6 5 4 3 2 2 2 1 0 0 0 1 0 0 0 1 1 1 1 1 1 1 1
13 13 12 10 7 7 8 2 6 3 3 5 7 8 9 9 10 10 11 11 10 10 9 8 8 7 6 6 5 4 3 3 2 2 1 1 1 1 1 0 1 1 1 1 1 1 0 0 0
Wind_Direction
175 179 209 235 100 77 73 73 80 87 76 69 66 62 65 49 53 91 110 117 119 118 115 118 103 100 98 98 99 99 98 97 97 96 96 97 99 100 99 100 100 102 102 102 103 103 103 104 105
170 189 227 26 74 81 75 76 78 76 93 99 84 79 79 70 72 104 122 124 127 120 118 109 107 103 100 99 100 100 99 97 96 94 94 94 95 97 98 100 100 101 101 103 104 104 104 103 104
182 228 307 67 66 72 82 82 88 92 97 93 88 72 70 84 98 109 122 133 128 113 111 110 113 107 103 100 99 99 98 97 96 95 95 95 97 98 98 99 100 100 101 103 104 105 105 105 106
218 214 88 75 76 73 84 93 101 103 94 87 99 90 81 76 94 115 129 134 127 127 123 113 115 110 105 100 99 100 97 96 95 95 94 94 96 99 99 100 101 102 101 102 103 105 106 108 109
241 94 89 82 81 84 87 88 84 89 90 96 99 101 92 80 104 122 133 136 131 123 118 118 117 113 107 104 101 97 96 94 93 93 92 93 95 97 98 99 100 102 102 101 102 105 108 111 112
214 90 84 84 88 91 92 89 88 93 100 103 107 106 94 111 124 131 135 135 128 125 120 118 120 113 109 107 104 101 97 95 94 94 93 94 95 96 98 99 102 103 103 101 102 104 110 114 114
47 76 83 88 96 97 92 91 91 100 104 101 108 106 117 132 132 135 132 130 127 122 124 131 133 128 122 112 107 104 99 98 97 96 97 98 98 98 100 101 103 106 105 103 103 104 108 114 117
9 96 90 88 91 94 106 99 96 101 98 109 112 114 135 143 143 139 137 138 133 130 128 131 127 128 136 128 116 109 105 103 102 100 102 109 114 112 119 116 104 106 106 104 104 104 110 114 117
260 91 84 83 88 103 122 117 107 102 113 106 85 97 125 140 146 146 145 144 140 135 132 135 132 132 131 125 127 132 128 124 135 121 126 155 129 120 126 96 106 109 108 106 104 109 119 129 129
59 84 79 76 87 110 127 123 124 130 121 115 110 111 129 145 153 156 155 155 154 152 152 143 139 130 132 126 134 136 136 130 129 113 126 118 99 95 104 110 112 114 117 120 114 127 155 175 138
73 80 88 96 101 114 126 125 130 130 117 128 137 141 148 154 160 163 160 158 154 159 157 149 145 150 149 131 136 117 119 131 139 122 128 114 129 132 127 133 138 139 155 142 137 166 138 113 101
90 86 92 105 119 128 124 124 125 103 88 120 137 146 154 161 165 166 162 161 157 162 161 152 145 157 155 146 137 154 166 156 136 135 174 141 139 131 116 133 133 149 139 134 148 133 118 107 114
96 99 100 112 127 125 129 124 116 108 109 127 137 149 159 164 163 164 162 165 167 172 170 161 163 166 166 169 200 160 153 148 138 139 142 170 168 158 145 133 140 148 144 159 167 144 135 152 158
97 112 121 128 129 140 141 131 131 121 133 139 148 157 163 166 167 168 175 179 181 183 180 174 182 182 180 181 190 178 174 194 182 163 141 200 173 165 191 180 182 176 170 138 183 163 175 189 165
138 135 133 134 145 152 162 143 134 137 147 152 158 163 166 171 175 182 185 188 189 188 186 186 187 188 190 194 198 193 190 189 215 192 186 204 202 186 231 210 203 190 177 180 206 203 201 204 194
177 180 152 142 165 169 216 124 137 155 160 162 166 169 175 179 186 186 188 195 197 193 189 194 195 186 190 199 203 203 205 198 229 247 231 220 236 224 241 237 224 215 220 211 209 226 222 216 222
195 187 141 145 179 185 222 123 141 165 171 171 176 178 181 183 194 192 192 195 198 198 195 199 204 197 195 197 201 203 206 223 241 246 249 240 246 245 244 250 257 248 236 231 237 208 243 229 236
182 176 165 158 171 205 216 168 151 174 184 182 183 184 185 190 194 192 193 194 195 196 197 204 207 203 200 202 201 207 214 220 234 241 247 257 249 247 253 243 238 250 242 238 238 238 239 243 240
193 207 171 130 156 214 222 214 179 179 192 191 190 191 192 192 187 185 187 190 192 194 197 204 209 201 203 204 209 208 213 218 223 235 239 249 255 252 254 263 239 246 240 248 244 244 233 234 233
206 210 178 142 154 226 230 226 194 193 200 201 199 196 196 188 183 184 187 190 193 194 198 202 205 203 203 201 208 217 231 236 233 242 242 247 249 251 243 248 253 247 247 244 248 241 255 247 228
212 224 194 154 165 201 248 206 189 191 199 202 206 204 200 195 189 186 188 191 191 193 195 195 199 201 204 201 206 211 213 233 231 238 244 249 248 247 259 260 262 260 249 241 244 238 242 248 238
205 205 208 189 217 197 262 254 158 183 195 204 204 202 200 191 188 187 185 184 187 189 187 189 191 195 194 195 206 213 220 230 238 246 252 257 246 249 252 255 258 259 258 250 245 236 241 244 246
188 154 191 215 241 254 236 279 136 166 201 202 199 196 193 185 183 184 182 179 180 180 177 179 180 183 186 193 201 215 226 232 235 235 244 257 248 247 256 260 258 250 251 251 252 249 245 239 244
149 156 174 221 241 243 254 274 213 150 196 180 179 186 186 180 177 174 172 169 171 170 171 172 172 176 180 187 196 210 220 234 248 253 263 257 248 242 252 258 256 250 249 248 247 245 239 243 246
195 202 211 219 226 233 160 257 344 77 87 173 168 172 178 177 174 170 169 169 169 169 170 168 167 173 178 183 193 204 215 221 232 250 261 279 277 267 270 271 264 262 255 250 248 241 248 243 243
208 219 231 241 238 208 185 238 128 93 104 152 159 158 164 167 169 168 168 169 169 170 171 167 166 171 174 176 185 194 204 218 226 243 280 286 297 304 312 284 271 269 267 260 248 248 249 246 245
201 221 242 245 260 259 217 209 185 158 150 151 152 154 158 163 165 167 169 170 170 170 169 168 166 166 166 169 170 166 173 198 191 184 239 271 297 297 324 315 303 297 282 270 254 246 256 254 246
235 210 214 238 240 244 226 225 202 171 160 160 160 161 157 159 161 164 168 169 168 167 164 166 166 165 166 166 169 158 164 175 182 194 336 353 335 334 324 328 310 305 302 290 273 259 251 244 252
187 202 216 230 246 251 240 210 119 153 163 171 168 164 161 160 160 161 164 164 163 161 160 163 165 165 164 161 159 156 156 160 161 159 154 75 9 4 348 298 322 337 338 328 308 288 264 241 261
214 210 205 217 222 243 261 210 106 127 155 167 163 159 159 158 157 157 158 160 162 162 163 165 165 165 163 158 155 153 148 143 139 120 104 94 75 40 23 21 37 21 22 20 18 333 7 269 342
Height
1506 1505 1506 1507 1502 1507 1517 1517 1514 1518 1521 1526 1527 1526 1528 1531 1532 1545 1550 1550 1551 1553 1552 1551 1551 1552 1552 1552 1553 1553 1553 1553 1553 1554 1554 1554 1554 1555 1555 1556 1556 1556 1557 1558 1559 1559 1560 1561 1562
1508 1507 1509 1504 1503 1518 1524 1518 1520 1523 1527 1529 1530 1531 1532 1538 1542 1547 1550 1551 1553 1555 1555 1554 1553 1554 1554 1555 1555 1555 1555 1556 1556 1556 1556 1556 1557 1557 1558 1558 1558 1559 1560 1560 1561 1562 1562 1563 1564
1509 1509 1509 1502 1509 1519 1524 1521 1524 1527 1529 1530 1532 1534 1537 1543 1547 1549 1552 1553 1555 1556 1556 1555 1555 1556 1556 1557 1557 1557 1558 1558 1558 1558 1559 1559 1559 1559 1560 1560 1561 1561 1562 1562 1563 1564 1564 1565 1566
1511 1511 1507 1507 1518 1519 1520 1523 1526 1527 1531 1533 1533 1538 1543 1548 1550 1552 1553 1555 1557 1558 1559 1557 1557 1558 1558 1559 1559 1559 1560 1560 1560 1561 1561 1561 1561 1562 1562 1563 1563 1564 1564 1565 1565 1566 1567 1567 1568
1512 1507 1506 1514 1520 1521 1522 1526 1527 1527 1531 1534 1536 1540 1547 1551 1552 1553 1555 1557 1559 1560 1561 1560 1559 1560 1560 1561 1561 1561 1562 1562 1563 1563 1563 1563 1563 1564 1564 1565 1565 1566 1566 1567 1568 1568 1569 1569 1570
1511 1503 1510 1521 1524 1523 1525 1528 1528 1531 1535 1537 1539 1542 1550 1553 1555 1556 1558 1560 1561 1562 1563 1561 1561 1561 1562 1563 1563 1563 1564 1564 1564 1565 1565 1565 1565 1566 1566 1567 1567 1568 1569 1569 1570 1570 1571 1571 1572
1510 1505 1513 1518 1523 1524 1527 1529 1530 1532 1536 1539 1541 1544 1551 1555 1556 1558 1559 1561 1562 1564 1564 1565 1565 1564 1564 1564 1565 1565 1566 1566 1566 1566 1567 1567 1567 1568 1568 1569 1569 1570 1570 1571 1572 1572 1573 1573 1573
1512 1506 1513 1516 1521 1525 1528 1531 1533 1535 1539 1543 1543 1544 1550 1555 1557 1559 1560 1562 1564 1565 1566 1566 1567 1567 1567 1567 1566 1567 1567 1568 1568 1568 1569 1569 1569 1570 1570 1571 1571 1572 1572 1573 1573 1574 1574 1575 1575
1513 1509 1516 1517 1520 1525 1529 1532 1536 1538 1541 1543 1545 1547 1551 1555 1557 1560 1562 1563 1564 1565 1567 1568 1569 1568 1569 1570 1568 1569 1569 1569 1570 1570 1570 1571 1573 1573 1573 1573 1573 1573 1574 1575 1575 1576 1576 1576 1577
1511 1512 1518 1518 1519 1523 1529 1532 1536 1538 1541 1544 1548 1551 1553 1556 1558 1561 1563 1564 1565 1566 1567 1568 1569 1569 1570 1571 1571 1572 1572 1572 1572 1572 1573 1574 1573 1574 1575 1574 1575 1575 1576 1576 1577 1578 1578 1579 1580
1513 1516 1519 1522 1524 1526 1529 1533 1536 1536 1538 1543 1548 1552 1555 1557 1560 1562 1564 1565 1566 1567 1568 1569 1569 1569 1571 1571 1572 1573 1573 1573 1574 1573 1574 1574 1575 1576 1577 1577 1577 1577 1578 1579 1579 1580 1581 1582 1582
1517 1520 1522 1524 1527 1528 1530 1533 1536 1537 1541 1545 1549 1552 1555 1558 1561 1563 1564 1566 1567 1567 1568 1569 1569 1570 1571 1572 1573 1573 1574 1574 1575 1574 1575 1576 1576 1577 1577 1577 1578 1579 1579 1580 1581 1581 1582 1582 1582
1519 1522 1524 1526 1528 1530 1532 1534 1536 1540 1544 1547 1550 1554 1556 1559 1561 1563 1565 1566 1567 1567 1568 1569 1569 1570 1570 1571 1572 1574 1574 1575 1575 1575 1575 1575 1577 1577 1578 1577 1578 1580 1580 1580 1581 1581 1582 1582 1582
1522 1523 1525 1527 1529 1531 1532 1535 1537 1542 1545 1549 1552 1555 1557 1559 1562 1563 1565 1566 1567 1567 1568 1569 1569 1569 1570 1571 1572 1573 1574 1574 1575 1575 1575 1575 1577 1577 1578 1578 1578 1579 1580 1580 1581 1581 1581 1582 1582
1523 1522 1524 1526 1528 1531 1532 1534 1537 1542 1545 1549 1552 1555 1557 1560 1562 1563 1565 1565 1566 1567 1568 1568 1569 1569 1570 1571 1572 1573 1574 1575 1575 1575 1575 1575 1576 1576 1577 1578 1578 1579 1579 1579 1580 1581 1581 1582 1582
1520 1519 1523 1526 1527 1530 1531 1533 1536 1541 1545 1548 1551 1554 1557 1559 1561 1563 1564 1565 1566 1566 1567 1568 1569 1569 1569 1570 1571 1573 1573 1574 1574 1575 1575 1575 1575 1576 1576 1577 1578 1578 1579 1579 1579 1580 1581 1581 1581
1519 1521 1523 1526 1526 1528 1528 1529 1535 1540 1543 1546 1550 1553 1556 1558 1560 1562 1563 1564 1565 1566 1566 1567 1568 1568 1569 1569 1570 1571 1571 1572 1573 1573 1574 1574 1574 1575 1575 1576 1577 1577 1578 1578 1579 1579 1580 1580 1580
1523 1521 1523 1524 1524 1526 1527 1528 1533 1539 1541 1544 1548 1551 1554 1556 1558 1560 1561 1563 1564 1565 1565 1566 1567 1568 1568 1568 1568 1569 1570 1571 1571 1572 1572 1573 1573 1573 1574 1575 1575 1576 1577 1577 1577 1577 1578 1578 1579
1518 1521 1524 1524 1524 1526 1526 1527 1530 1536 1539 1542 1545 1548 1551 1554 1557 1559 1560 1561 1562 1563 1564 1565 1566 1566 1567 1567 1568 1568 1569 1569 1570 1571 1571 1571 1572 1572 1572 1573 1573 1574 1575 1575 1576 1576 1577 1577 1577
1520 1522 1523 1524 1525 1525 1525 1526 1527 1532 1536 1539 1542 1546 1549 1552 1554 1556 1558 1559 1560 1561 1562 1563 1564 1565 1565 1566 1567 1567 1568 1568 1569 1569 1569 1569 1570 1570 1570 1570 1571 1571 1572 1572 1573 1574 1575 1575 1576
1521 1521 1522 1525 1525 1524 1525 1527 1527 1529 1534 1538 1541 1543 1546 1549 1551 1554 1555 1557 1558 1560 1561 1562 1563 1564 1564 1565 1565 1565 1566 1566 1567 1567 1567 1568 1568 1568 1568 1568 1568 1569 1570 1570 1571 1571 1572 1573 1574
1524 1521 1522 1524 1526 1526 1527 1531 1525 1525 1529 1533 1537 1540 1543 1546 1549 1552 1554 1555 1557 1558 1559 1560 1561 1562 1563 1563 1564 1564 1564 1565 1565 1565 1565 1565 1565 1566 1566 1566 1566 1566 1567 1567 1568 1569 1570 1570 1571
1520 1521 1522 1523 1525 1527 1526 1529 1524 1523 1526 1527 1532 1536 1540 1543 1546 1549 1552 1554 1556 1557 1558 1559 1560 1561 1562 1562 1562 1562 1563 1564 1564 1563 1563 1563 1564 1563 1563 1563 1564 1564 1564 1565 1565 1566 1567 1568 1569
1522 1523 1524 1523 1522 1537 1531 1533 1529 1519 1522 1523 1528 1534 1538 1541 1545 1548 1551 1553 1554 1556 1557 1558 1559 1560 1560 1561 1561 1561 1561 1562 1562 1562 1562 1562 1562 1562 1562 1562 1561 1562 1562 1563 1563 1564 1565 1565 1566
1520 1525 1537 1540 1539 1537 1528 1531 1527 1519 1520 1523 1526 1531 1536 1540 1543 1546 1549 1551 1553 1555 1556 1557 1558 1559 1559 1560 1560 1560 1560 1561 1561 1561 1561 1561 1561 1561 1560 1560 1560 1560 1560 1561 1561 1562 1562 1563 1563
1518 1518 1535 1546 1543 1532 1531 1530 1520 1519 1522 1524 1527 1530 1534 1538 1542 1545 1548 1550 1552 1553 1555 1556 1557 1558 1558 1559 1559 1559 1559 1560 1560 1560 1560 1560 1560 1560 1559 1558 1558 1558 1559 1559 1559 1559 1560 1560 1560
1517 1517 1511 1523 1530 1534 1527 1523 1518 1518 1521 1523 1526 1529 1533 1537 1540 1544 1546 1549 1551 1552 1554 1556 1556 1557 1558 1558 1558 1559 1559 1559 1560 1559 1559 1559 1559 1558 1558 1557 1557 1557 1557 1557 1557 1557 1557 1558 1558
1511 1510 1519 1524 1542 1544 1535 1529 1522 1518 1519 1521 1525 1528 1532 1536 1539 1542 1545 1547 1550 1552 1553 1555 1556 1556 1557 1558 1558 1559 1559 1559 1559 1559 1559 1558 1558 1557 1557 1556 1556 1556 1556 1555 1555 1555 1555 1555 1555
1517 1517 1516 1519 1522 1536 1540 1529 1510 1514 1517 1520 1523 1527 1531 1534 1538 1541 1543 1546 1548 1551 1553 1554 1555 1556 1556 1557 1558 1558 1558 1559 1558 1558 1558 1558 1557 1557 1556 1556 1555 1555 1554 1554 1554 1554 1554 1554 1553
1506 1508 1515 1527 1532 1528 1528 1525 1510 1513 1516 1519 1523 1527 1530 1534 1537 1539 1542 1545 1547 1549 1552 1553 1554 1555 1556 1557 1557 1557 1558 1558 1558 1558 1558 1557 1557 1556 1555 1555 1554 1554 1553 1553 1553 1552 1553 1553 1552